Time,TemperatureF,DewpointF,PressureIn,WindDirection,WindDirectionDegrees,WindSpeedMPH,WindSpeedGustMPH,Humidity,HourlyPrecipIn,Conditions,Clouds,dailyrainin,SoftwareType,DateUTC
2013-02-12 00:00:00,31.0,31.0,30.01,SW,225,16.0,20.0,100,0.00,,,0.00,TxWx,2013-02-12 05:00:00,
2013-02-12 00:02:00,31.0,31.0,30.01,SW,225,19.0,22.0,100,0.00,,,0.00,TxWx,2013-02-12 05:02:00,
2013-02-12 00:03:00,31.0,31.0,30.01,SW,225,10.0,21.0,100,0.00,,,0.00,TxWx,2013-02-12 05:03:00,
2013-02-12 00:08:00,31.0,31.0,30.01,WSW,247,19.0,25.0,100,0.00,,,0.00,TxWx,2013-02-12 05:08:00,
2013-02-12 00:12:00,31.0,31.0,30.02,West,270,14.0,24.0,100,0.00,,,0.00,TxWx,2013-02-12 05:12:00,
2013-02-12 00:17:00,31.0,31.0,30.01,SW,225,14.0,27.0,100,0.00,,,0.00,TxWx,2013-02-12 05:17:00,
2013-02-12 00:23:00,31.0,31.0,30.02,SSW,202,11.0,21.0,100,0.00,,,0.00,TxWx,2013-02-12 05:23:00,
2013-02-12 00:28:00,31.0,31.0,30.02,SW,225,10.0,18.0,100,0.00,,,0.00,TxWx,2013-02-12 05:28:00,
2013-02-12 00:33:00,31.0,30.0,30.02,WSW,247,21.0,23.0,99,0.00,,,0.00,TxWx,2013-02-12 05:33:00,
2013-02-12 00:39:00,31.0,31.0,30.02,SW,225,20.0,21.0,100,0.00,,,0.00,TxWx,2013-02-12 05:39:00,
2013-02-12 00:44:00,31.0,31.0,30.02,WSW,247,6.0,17.0,100,0.00,,,0.00,TxWx,2013-02-12 05:44:00,
2013-02-12 00:50:00,31.0,29.0,30.02,WSW,247,21.0,24.0,98,0.00,,,0.00,TxWx,2013-02-12 05:50:00,
2013-02-12 00:55:00,31.0,29.0,30.03,SW,225,13.0,27.0,95,0.00,,,0.00,TxWx,2013-02-12 05:55:00,
2013-02-12 01:00:00,31.0,29.0,30.03,WSW,247,15.0,27.0,95,0.00,,,0.00,TxWx,2013-02-12 06:00:00,
2013-02-12 01:06:00,31.0,29.0,30.03,SW,225,16.0,21.0,96,0.00,,,0.00,TxWx,2013-02-12 06:06:00,
2013-02-12 01:12:00,31.0,29.0,30.03,SW,225,11.0,11.0,96,0.00,,,0.00,TxWx,2013-02-12 06:12:00,
2013-02-12 01:17:00,31.0,29.0,30.03,SSW,202,25.0,29.0,95,0.00,,,0.00,TxWx,2013-02-12 06:17:00,
2013-02-12 01:22:00,31.0,29.0,30.03,West,270,8.0,18.0,95,0.00,,,0.00,TxWx,2013-02-12 06:22:00,
2013-02-12 01:28:00,31.0,29.0,30.04,WSW,247,13.0,17.0,95,0.00,,,0.00,TxWx,2013-02-12 06:28:00,
2013-02-12 01:33:00,31.0,28.0,30.04,WNW,292,11.0,20.0,94,0.00,,,0.00,TxWx,2013-02-12 06:33:00,
2013-02-12 01:39:00,31.0,28.0,30.04,SW,225,15.0,27.0,93,0.00,,,0.00,TxWx,2013-02-12 06:39:00,
2013-02-12 01:44:00,31.0,28.0,30.03,WSW,247,14.0,20.0,93,0.00,,,0.00,TxWx,2013-02-12 06:44:00,
2013-02-12 01:50:00,31.0,28.0,30.04,SSW,202,8.0,17.0,93,0.00,,,0.00,TxWx,2013-02-12 06:50:00,
2013-02-12 01:56:00,32.0,29.0,30.04,SW,225,15.0,29.0,93,0.00,,,0.00,TxWx,2013-02-12 06:56:00,
2013-02-12 02:01:00,32.0,28.0,30.04,SW,225,11.0,27.0,90,0.00,,,0.00,TxWx,2013-02-12 07:01:00,
2013-02-12 02:07:00,32.0,28.0,30.04,WSW,247,19.0,29.0,88,0.00,,,0.00,TxWx,2013-02-12 07:07:00,
2013-02-12 02:13:00,32.0,27.0,30.05,WSW,247,11.0,27.0,87,0.00,,,0.00,TxWx,2013-02-12 07:13:00,
2013-02-12 02:18:00,32.0,28.0,30.05,West,270,15.0,24.0,87,0.00,,,0.00,TxWx,2013-02-12 07:18:00,
2013-02-12 02:24:00,32.0,27.0,30.05,WSW,247,10.0,21.0,87,0.00,,,0.00,TxWx,2013-02-12 07:24:00,
2013-02-12 02:29:00,33.0,28.0,30.05,SW,225,13.0,21.0,86,0.00,,,0.00,TxWx,2013-02-12 07:29:00,
2013-02-12 02:34:00,33.0,28.0,30.05,WSW,247,14.0,28.0,85,0.00,,,0.00,TxWx,2013-02-12 07:34:00,
2013-02-12 02:40:00,33.0,28.0,30.05,West,270,13.0,21.0,85,0.00,,,0.00,TxWx,2013-02-12 07:40:00,
2013-02-12 02:45:00,33.0,28.0,30.05,WSW,247,14.0,18.0,85,0.00,,,0.00,TxWx,2013-02-12 07:45:00,
2013-02-12 02:51:00,33.0,28.0,30.06,WSW,247,13.0,23.0,85,0.00,,,0.00,TxWx,2013-02-12 07:51:00,
2013-02-12 02:56:00,33.0,28.0,30.06,SW,225,21.0,28.0,84,0.00,,,0.00,TxWx,2013-02-12 07:56:00,
2013-02-12 03:01:00,33.0,28.0,30.06,SW,225,9.0,24.0,84,0.00,,,0.00,TxWx,2013-02-12 08:01:00,
2013-02-12 03:07:00,33.0,28.0,30.06,WSW,247,14.0,14.0,85,0.00,,,0.00,TxWx,2013-02-12 08:07:00,
2013-02-12 03:12:00,33.0,28.0,30.06,WSW,247,16.0,24.0,85,0.00,,,0.00,TxWx,2013-02-12 08:12:00,
2013-02-12 03:18:00,33.0,28.0,30.07,WSW,247,14.0,24.0,85,0.00,,,0.00,TxWx,2013-02-12 08:18:00,
2013-02-12 03:23:00,33.0,28.0,30.07,SW,225,18.0,23.0,85,0.00,,,0.00,TxWx,2013-02-12 08:23:00,
2013-02-12 03:28:00,33.0,28.0,30.07,WSW,247,13.0,25.0,85,0.00,,,0.00,TxWx,2013-02-12 08:28:00,
2013-02-12 03:34:00,33.0,28.0,30.07,WNW,292,13.0,27.0,85,0.00,,,0.00,TxWx,2013-02-12 08:34:00,
2013-02-12 03:39:00,33.0,28.0,30.07,WSW,247,10.0,24.0,86,0.00,,,0.00,TxWx,2013-02-12 08:39:00,
2013-02-12 03:44:00,33.0,28.0,30.07,WNW,292,10.0,23.0,86,0.00,,,0.00,TxWx,2013-02-12 08:44:00,
2013-02-12 03:49:00,33.0,28.0,30.08,SSW,202,10.0,15.0,86,0.00,,,0.00,TxWx,2013-02-12 08:49:00,
2013-02-12 03:55:00,33.0,28.0,30.08,West,270,10.0,26.0,85,0.00,,,0.00,TxWx,2013-02-12 08:55:00,
2013-02-12 04:00:00,33.0,28.0,30.09,WSW,247,12.0,13.0,85,0.00,,,0.00,TxWx,2013-02-12 09:00:00,
2013-02-12 04:06:00,33.0,28.0,30.09,West,270,11.0,19.0,85,0.00,,,0.00,TxWx,2013-02-12 09:06:00,
2013-02-12 04:12:00,33.0,28.0,30.09,SW,225,8.0,15.0,85,0.00,,,0.00,TxWx,2013-02-12 09:12:00,
2013-02-12 04:17:00,33.0,28.0,30.09,NW,315,13.0,24.0,85,0.00,,,0.00,TxWx,2013-02-12 09:17:00,
2013-02-12 04:23:00,33.0,28.0,30.09,WSW,247,16.0,17.0,85,0.00,,,0.00,TxWx,2013-02-12 09:23:00,
2013-02-12 04:28:00,33.0,28.0,30.10,SW,225,12.0,21.0,85,0.00,,,0.00,TxWx,2013-02-12 09:28:00,
2013-02-12 04:33:00,33.0,28.0,30.10,SW,225,13.0,14.0,86,0.00,,,0.00,TxWx,2013-02-12 09:33:00,
2013-02-12 04:39:00,33.0,28.0,30.10,SW,225,19.0,22.0,86,0.00,,,0.00,TxWx,2013-02-12 09:39:00,
2013-02-12 04:44:00,33.0,28.0,30.10,West,270,15.0,18.0,86,0.00,,,0.00,TxWx,2013-02-12 09:44:00,
2013-02-12 04:49:00,32.0,27.0,30.10,West,270,10.0,14.0,86,0.00,,,0.00,TxWx,2013-02-12 09:49:00,
2013-02-12 04:54:00,32.0,27.0,30.10,WSW,247,15.0,21.0,86,0.00,,,0.00,TxWx,2013-02-12 09:54:00,
2013-02-12 04:59:00,32.0,27.0,30.11,WSW,247,10.0,16.0,86,0.00,,,0.00,TxWx,2013-02-12 09:59:00,
2013-02-12 05:05:00,32.0,27.0,30.11,WSW,247,8.0,15.0,86,0.00,,,0.00,TxWx,2013-02-12 10:05:00,
2013-02-12 05:10:00,32.0,27.0,30.11,WSW,247,18.0,18.0,87,0.00,,,0.00,TxWx,2013-02-12 10:10:00,
2013-02-12 05:15:00,32.0,27.0,30.11,West,270,13.0,21.0,87,0.00,,,0.00,TxWx,2013-02-12 10:15:00,
2013-02-12 05:20:00,32.0,27.0,30.11,WSW,247,12.0,16.0,87,0.00,,,0.00,TxWx,2013-02-12 10:20:00,
2013-02-12 05:26:00,33.0,28.0,30.11,WSW,247,7.0,14.0,86,0.00,,,0.00,TxWx,2013-02-12 10:26:00,
2013-02-12 05:31:00,33.0,28.0,30.12,SW,225,10.0,19.0,86,0.00,,,0.00,TxWx,2013-02-12 10:31:00,
2013-02-12 05:36:00,33.0,28.0,30.12,WSW,247,8.0,26.0,85,0.00,,,0.00,TxWx,2013-02-12 10:36:00,
2013-02-12 05:42:00,33.0,28.0,30.12,WSW,247,15.0,21.0,85,0.00,,,0.00,TxWx,2013-02-12 10:42:00,
2013-02-12 05:48:00,33.0,28.0,30.12,SW,225,16.0,19.0,85,0.00,,,0.00,TxWx,2013-02-12 10:48:00,
2013-02-12 05:53:00,33.0,28.0,30.12,WSW,247,10.0,14.0,85,0.00,,,0.00,TxWx,2013-02-12 10:53:00,
2013-02-12 05:59:00,33.0,28.0,30.12,WNW,292,5.0,19.0,84,0.00,,,0.00,TxWx,2013-02-12 10:59:00,
2013-02-12 06:04:00,33.0,28.0,30.12,SW,225,12.0,18.0,84,0.00,,,0.00,TxWx,2013-02-12 11:04:00,
2013-02-12 06:09:00,33.0,28.0,30.13,WSW,247,10.0,16.0,84,0.00,,,0.00,TxWx,2013-02-12 11:09:00,
2013-02-12 06:15:00,33.0,27.0,30.13,WSW,247,21.0,29.0,82,0.00,,,0.00,TxWx,2013-02-12 11:15:00,
2013-02-12 06:20:00,33.0,27.0,30.13,WSW,247,10.0,11.0,82,0.00,,,0.00,TxWx,2013-02-12 11:20:00,
2013-02-12 06:25:00,33.0,27.0,30.13,SW,225,18.0,18.0,82,0.00,,,0.00,TxWx,2013-02-12 11:25:00,
2013-02-12 06:31:00,33.0,27.0,30.13,WSW,247,10.0,12.0,82,0.00,,,0.00,TxWx,2013-02-12 11:31:00,
2013-02-12 06:37:00,33.0,27.0,30.13,WSW,247,10.0,18.0,82,0.00,,,0.00,TxWx,2013-02-12 11:37:00,
2013-02-12 06:42:00,33.0,27.0,30.14,WSW,247,11.0,24.0,83,0.00,,,0.00,TxWx,2013-02-12 11:42:00,
2013-02-12 06:47:00,33.0,27.0,30.14,West,270,10.0,18.0,83,0.00,,,0.00,TxWx,2013-02-12 11:47:00,
2013-02-12 06:53:00,32.0,26.0,30.14,NW,315,11.0,19.0,83,0.00,,,0.00,TxWx,2013-02-12 11:53:00,
2013-02-12 06:58:00,32.0,26.0,30.15,SW,225,8.0,14.0,83,0.00,,,0.00,TxWx,2013-02-12 11:58:00,
2013-02-12 07:04:00,32.0,26.0,30.14,SW,225,18.0,23.0,83,0.00,,,0.00,TxWx,2013-02-12 12:04:00,
2013-02-12 07:09:00,32.0,27.0,30.15,West,270,11.0,21.0,84,0.00,,,0.00,TxWx,2013-02-12 12:09:00,
2013-02-12 07:14:00,32.0,27.0,30.15,SW,225,10.0,12.0,84,0.00,,,0.00,TxWx,2013-02-12 12:14:00,
2013-02-12 07:20:00,32.0,27.0,30.15,WSW,247,12.0,13.0,84,0.00,,,0.00,TxWx,2013-02-12 12:20:00,
2013-02-12 07:25:00,32.0,27.0,30.15,WSW,247,10.0,15.0,85,0.00,,,0.00,TxWx,2013-02-12 12:25:00,
2013-02-12 07:31:00,32.0,27.0,30.16,West,270,8.0,13.0,85,0.00,,,0.00,TxWx,2013-02-12 12:31:00,
2013-02-12 07:36:00,32.0,27.0,30.16,WSW,247,10.0,16.0,85,0.00,,,0.00,TxWx,2013-02-12 12:36:00,
2013-02-12 07:41:00,32.0,27.0,30.16,West,270,8.0,18.0,86,0.00,,,0.00,TxWx,2013-02-12 12:41:00,
2013-02-12 07:47:00,32.0,27.0,30.17,SW,225,8.0,13.0,85,0.00,,,0.00,TxWx,2013-02-12 12:47:00,
2013-02-12 07:52:00,32.0,27.0,30.16,SW,225,15.0,19.0,85,0.00,,,0.00,TxWx,2013-02-12 12:52:00,
2013-02-12 07:57:00,32.0,27.0,30.17,WSW,247,13.0,13.0,84,0.00,,,0.00,TxWx,2013-02-12 12:57:00,
2013-02-12 08:03:00,32.0,27.0,30.17,NW,315,6.0,21.0,84,0.00,,,0.00,TxWx,2013-02-12 13:03:00,
2013-02-12 08:09:00,32.0,27.0,30.17,WSW,247,13.0,26.0,84,0.00,,,0.00,TxWx,2013-02-12 13:09:00,
2013-02-12 08:14:00,32.0,26.0,30.17,SW,225,16.0,19.0,83,0.00,,,0.00,TxWx,2013-02-12 13:14:00,
2013-02-12 08:20:00,32.0,26.0,30.18,West,270,5.0,11.0,83,0.00,,,0.00,TxWx,2013-02-12 13:20:00,
2013-02-12 08:25:00,32.0,26.0,30.18,WSW,247,9.0,15.0,83,0.00,,,0.00,TxWx,2013-02-12 13:25:00,
2013-02-12 08:30:00,32.0,26.0,30.18,WSW,247,11.0,16.0,83,0.00,,,0.00,TxWx,2013-02-12 13:30:00,
2013-02-12 08:36:00,32.0,26.0,30.18,WSW,247,15.0,21.0,83,0.00,,,0.00,TxWx,2013-02-12 13:36:00,
2013-02-12 08:41:00,32.0,26.0,30.18,WSW,247,10.0,22.0,82,0.00,,,0.00,TxWx,2013-02-12 13:41:00,
2013-02-12 08:47:00,32.0,26.0,30.18,NNW,337,5.0,17.0,81,0.00,,,0.00,TxWx,2013-02-12 13:47:00,
2013-02-12 08:52:00,32.0,26.0,30.19,SW,225,10.0,23.0,82,0.00,,,0.00,TxWx,2013-02-12 13:52:00,
2013-02-12 08:58:00,32.0,26.0,30.18,WSW,247,9.0,21.0,82,0.00,,,0.00,TxWx,2013-02-12 13:58:00,
2013-02-12 09:03:00,32.0,26.0,30.19,SSW,202,3.0,29.0,82,0.00,,,0.00,TxWx,2013-02-12 14:03:00,
2013-02-12 09:08:00,32.0,26.0,30.19,WSW,247,11.0,16.0,82,0.00,,,0.00,TxWx,2013-02-12 14:08:00,
2013-02-12 09:14:00,32.0,26.0,30.19,West,270,9.0,18.0,82,0.00,,,0.00,TxWx,2013-02-12 14:14:00,
2013-02-12 09:19:00,32.0,26.0,30.19,West,270,9.0,14.0,82,0.00,,,0.00,TxWx,2013-02-12 14:19:00,
2013-02-12 09:24:00,32.0,26.0,30.20,SW,225,10.0,17.0,81,0.00,,,0.00,TxWx,2013-02-12 14:24:00,
2013-02-12 09:30:00,32.0,26.0,30.20,West,270,9.0,16.0,81,0.00,,,0.00,TxWx,2013-02-12 14:30:00,
2013-02-12 09:35:00,33.0,27.0,30.20,WSW,247,8.0,18.0,81,0.00,,,0.00,TxWx,2013-02-12 14:35:00,
2013-02-12 09:40:00,33.0,27.0,30.20,SSW,202,6.0,14.0,80,0.00,,,0.00,TxWx,2013-02-12 14:40:00,
2013-02-12 09:46:00,33.0,27.0,30.20,WSW,247,11.0,14.0,80,0.00,,,0.00,TxWx,2013-02-12 14:46:00,
2013-02-12 09:51:00,33.0,26.0,30.20,SW,225,10.0,15.0,80,0.00,,,0.00,TxWx,2013-02-12 14:51:00,
2013-02-12 09:57:00,32.0,25.0,30.20,West,270,6.0,16.0,79,0.00,,,0.00,TxWx,2013-02-12 14:57:00,
2013-02-12 10:03:00,32.0,25.0,30.21,West,270,11.0,12.0,80,0.00,,,0.00,TxWx,2013-02-12 15:03:00,
2013-02-12 10:08:00,32.0,25.0,30.21,West,270,8.0,18.0,79,0.00,,,0.00,TxWx,2013-02-12 15:08:00,
2013-02-12 10:13:00,32.0,25.0,30.21,SW,225,13.0,15.0,80,0.00,,,0.00,TxWx,2013-02-12 15:13:00,
2013-02-12 10:19:00,32.0,25.0,30.21,WSW,247,12.0,16.0,80,0.00,,,0.00,TxWx,2013-02-12 15:19:00,
2013-02-12 10:24:00,32.0,25.0,30.21,West,270,12.0,15.0,80,0.00,,,0.00,TxWx,2013-02-12 15:24:00,
2013-02-12 10:30:00,32.0,25.0,30.21,WSW,247,8.0,13.0,79,0.00,,,0.00,TxWx,2013-02-12 15:30:00,
2013-02-12 10:35:00,32.0,25.0,30.21,WSW,247,9.0,11.0,80,0.00,,,0.00,TxWx,2013-02-12 15:35:00,
2013-02-12 10:40:00,32.0,25.0,30.21,West,270,9.0,17.0,80,0.00,,,0.00,TxWx,2013-02-12 15:40:00,
2013-02-12 10:46:00,32.0,26.0,30.21,SW,225,8.0,10.0,80,0.00,,,0.00,TxWx,2013-02-12 15:46:00,
2013-02-12 10:51:00,32.0,25.0,30.21,SW,225,8.0,17.0,80,0.00,,,0.00,TxWx,2013-02-12 15:51:00,
2013-02-12 10:56:00,32.0,25.0,30.21,WSW,247,17.0,21.0,80,0.00,,,0.00,TxWx,2013-02-12 15:56:00,
2013-02-12 11:02:00,32.0,25.0,30.21,WSW,247,10.0,17.0,79,0.00,,,0.00,TxWx,2013-02-12 16:02:00,
2013-02-12 11:07:00,32.0,25.0,30.21,WSW,247,11.0,11.0,78,0.00,,,0.00,TxWx,2013-02-12 16:07:00,
2013-02-12 11:13:00,32.0,25.0,30.21,WNW,292,7.0,13.0,78,0.00,,,0.00,TxWx,2013-02-12 16:13:00,
2013-02-12 11:18:00,33.0,26.0,30.21,West,270,5.0,14.0,78,0.00,,,0.00,TxWx,2013-02-12 16:18:00,
2013-02-12 11:24:00,33.0,26.0,30.21,WSW,247,12.0,17.0,77,0.00,,,0.00,TxWx,2013-02-12 16:24:00,
2013-02-12 11:29:00,32.0,24.0,30.21,WSW,247,10.0,20.0,76,0.00,,,0.00,TxWx,2013-02-12 16:29:00,
2013-02-12 11:34:00,33.0,26.0,30.22,WSW,247,5.0,8.0,77,0.00,,,0.00,TxWx,2013-02-12 16:34:00,
2013-02-12 11:40:00,32.0,24.0,30.22,West,270,11.0,16.0,77,0.00,,,0.00,TxWx,2013-02-12 16:40:00,
2013-02-12 11:45:00,32.0,25.0,30.22,West,270,13.0,16.0,78,0.00,,,0.00,TxWx,2013-02-12 16:45:00,
2013-02-12 11:50:00,32.0,25.0,30.22,WSW,247,10.0,21.0,78,0.00,,,0.00,TxWx,2013-02-12 16:50:00,
2013-02-12 11:56:00,32.0,25.0,30.22,SW,225,6.0,10.0,79,0.00,,,0.00,TxWx,2013-02-12 16:56:00,
2013-02-12 12:01:00,32.0,25.0,30.22,WSW,247,15.0,15.0,80,0.00,,,0.00,TxWx,2013-02-12 17:01:00,
2013-02-12 12:07:00,32.0,26.0,30.22,West,270,11.0,14.0,80,0.00,,,0.00,TxWx,2013-02-12 17:07:00,
2013-02-12 12:12:00,32.0,25.0,30.22,WSW,247,21.0,21.0,80,0.00,,,0.00,TxWx,2013-02-12 17:12:00,
2013-02-12 12:17:00,32.0,26.0,30.22,WSW,247,6.0,12.0,80,0.00,,,0.00,TxWx,2013-02-12 17:17:00,
2013-02-12 12:23:00,32.0,25.0,30.22,SW,225,12.0,18.0,79,0.00,,,0.00,TxWx,2013-02-12 17:23:00,
2013-02-12 12:28:00,32.0,25.0,30.23,West,270,11.0,17.0,79,0.00,,,0.00,TxWx,2013-02-12 17:28:00,
2013-02-12 12:34:00,32.0,25.0,30.22,SSW,202,6.0,13.0,79,0.00,,,0.00,TxWx,2013-02-12 17:34:00,
2013-02-12 12:39:00,32.0,25.0,30.22,SW,225,10.0,21.0,78,0.00,,,0.00,TxWx,2013-02-12 17:39:00,
2013-02-12 12:44:00,32.0,25.0,30.22,WSW,247,9.0,14.0,79,0.00,,,0.00,TxWx,2013-02-12 17:44:00,
2013-02-12 12:49:00,32.0,25.0,30.21,WSW,247,9.0,11.0,79,0.00,,,0.00,TxWx,2013-02-12 17:49:00,
2013-02-12 12:55:00,32.0,25.0,30.21,SSW,202,8.0,17.0,78,0.00,,,0.00,TxWx,2013-02-12 17:55:00,
2013-02-12 13:00:00,32.0,25.0,30.21,WSW,247,13.0,16.0,77,0.00,,,0.00,TxWx,2013-02-12 18:00:00,
2013-02-12 13:06:00,33.0,26.0,30.21,West,270,11.0,13.0,78,0.00,,,0.00,TxWx,2013-02-12 18:06:00,
2013-02-12 13:11:00,32.0,24.0,30.20,WSW,247,8.0,11.0,77,0.00,,,0.00,TxWx,2013-02-12 18:11:00,
2013-02-12 13:17:00,32.0,24.0,30.20,WSW,247,12.0,15.0,77,0.00,,,0.00,TxWx,2013-02-12 18:17:00,
2013-02-12 13:22:00,33.0,25.0,30.20,WSW,247,5.0,13.0,76,0.00,,,0.00,TxWx,2013-02-12 18:22:00,
2013-02-12 13:27:00,33.0,25.0,30.20,SW,225,5.0,10.0,76,0.00,,,0.00,TxWx,2013-02-12 18:27:00,
2013-02-12 13:33:00,32.0,24.0,30.20,SW,225,14.0,14.0,76,0.00,,,0.00,TxWx,2013-02-12 18:33:00,
2013-02-12 13:38:00,32.0,24.0,30.20,WSW,247,11.0,14.0,76,0.00,,,0.00,TxWx,2013-02-12 18:38:00,
2013-02-12 13:44:00,32.0,24.0,30.20,WSW,247,8.0,19.0,77,0.00,,,0.00,TxWx,2013-02-12 18:44:00,
2013-02-12 13:50:00,32.0,24.0,30.20,SW,225,8.0,14.0,77,0.00,,,0.00,TxWx,2013-02-12 18:50:00,
2013-02-12 13:56:00,32.0,24.0,30.20,WSW,247,14.0,15.0,76,0.00,,,0.00,TxWx,2013-02-12 18:56:00,
2013-02-12 14:01:00,32.0,25.0,30.20,WSW,247,6.0,13.0,77,0.00,,,0.00,TxWx,2013-02-12 19:01:00,
2013-02-12 14:07:00,32.0,25.0,30.20,WSW,247,14.0,18.0,78,0.00,,,0.00,TxWx,2013-02-12 19:07:00,
2013-02-12 14:12:00,32.0,25.0,30.20,SW,225,10.0,13.0,79,0.00,,,0.00,TxWx,2013-02-12 19:12:00,
2013-02-12 14:17:00,32.0,25.0,30.20,SW,225,10.0,13.0,80,0.00,,,0.00,TxWx,2013-02-12 19:17:00,
2013-02-12 14:23:00,32.0,25.0,30.19,SSW,202,7.0,10.0,80,0.00,,,0.00,TxWx,2013-02-12 19:23:00,
2013-02-12 14:28:00,32.0,25.0,30.19,West,270,7.0,11.0,79,0.00,,,0.00,TxWx,2013-02-12 19:28:00,
2013-02-12 14:34:00,32.0,25.0,30.19,West,270,8.0,11.0,79,0.00,,,0.00,TxWx,2013-02-12 19:34:00,
2013-02-12 14:40:00,32.0,25.0,30.19,WSW,247,13.0,16.0,77,0.00,,,0.00,TxWx,2013-02-12 19:40:00,
2013-02-12 14:45:00,32.0,24.0,30.19,WSW,247,10.0,11.0,77,0.00,,,0.00,TxWx,2013-02-12 19:45:00,
2013-02-12 14:50:00,32.0,24.0,30.19,WNW,292,6.0,16.0,75,0.00,,,0.00,TxWx,2013-02-12 19:50:00,
2013-02-12 14:55:00,32.0,24.0,30.19,SW,225,10.0,14.0,75,0.00,,,0.00,TxWx,2013-02-12 19:55:00,
2013-02-12 15:01:00,32.0,24.0,30.19,WSW,247,10.0,10.0,75,0.00,,,0.00,TxWx,2013-02-12 20:01:00,
2013-02-12 15:06:00,32.0,24.0,30.19,WSW,247,6.0,12.0,75,0.00,,,0.00,TxWx,2013-02-12 20:06:00,
2013-02-12 15:12:00,32.0,24.0,30.19,WSW,247,7.0,11.0,75,0.00,,,0.00,TxWx,2013-02-12 20:12:00,
2013-02-12 15:17:00,32.0,25.0,30.19,West,270,10.0,12.0,78,0.00,,,0.00,TxWx,2013-02-12 20:17:00,
2013-02-12 15:23:00,31.0,25.0,30.19,WSW,247,9.0,11.0,80,0.00,,,0.00,TxWx,2013-02-12 20:23:00,
2013-02-12 15:28:00,31.0,25.0,30.18,WSW,247,8.0,8.0,82,0.00,,,0.00,TxWx,2013-02-12 20:28:00,
2013-02-12 15:33:00,31.0,25.0,30.18,WSW,247,8.0,10.0,82,0.00,,,0.00,TxWx,2013-02-12 20:33:00,
2013-02-12 15:39:00,31.0,25.0,30.17,West,270,12.0,12.0,82,0.00,,,0.00,TxWx,2013-02-12 20:39:00,
2013-02-12 15:44:00,31.0,25.0,30.18,West,270,8.0,13.0,82,0.00,,,0.00,TxWx,2013-02-12 20:44:00,
2013-02-12 15:50:00,31.0,25.0,30.18,West,270,5.0,10.0,83,0.00,,,0.00,TxWx,2013-02-12 20:50:00,
2013-02-12 15:55:00,31.0,25.0,30.18,SW,225,10.0,13.0,83,0.00,,,0.00,TxWx,2013-02-12 20:55:00,
2013-02-12 16:01:00,31.0,26.0,30.19,WSW,247,8.0,8.0,84,0.00,,,0.00,TxWx,2013-02-12 21:01:00,
2013-02-12 16:06:00,31.0,25.0,30.18,WSW,247,8.0,13.0,83,0.00,,,0.00,TxWx,2013-02-12 21:06:00,
2013-02-12 16:11:00,31.0,25.0,30.19,WSW,247,11.0,11.0,83,0.00,,,0.00,TxWx,2013-02-12 21:11:00,
2013-02-12 16:16:00,31.0,25.0,30.18,WNW,292,2.0,7.0,83,0.00,,,0.00,TxWx,2013-02-12 21:16:00,
2013-02-12 16:22:00,31.0,25.0,30.19,WSW,247,14.0,14.0,83,0.00,,,0.00,TxWx,2013-02-12 21:22:00,
2013-02-12 16:27:00,31.0,25.0,30.19,West,270,4.0,8.0,83,0.00,,,0.00,TxWx,2013-02-12 21:27:00,
2013-02-12 16:33:00,31.0,25.0,30.19,West,270,3.0,6.0,83,0.00,,,0.00,TxWx,2013-02-12 21:33:00,
2013-02-12 16:38:00,31.0,25.0,30.19,West,270,6.0,10.0,82,0.00,,,0.00,TxWx,2013-02-12 21:38:00,
2013-02-12 16:43:00,31.0,25.0,30.19,SW,225,6.0,7.0,82,0.00,,,0.00,TxWx,2013-02-12 21:43:00,
2013-02-12 16:49:00,31.0,25.0,30.19,WSW,247,10.0,12.0,81,0.00,,,0.00,TxWx,2013-02-12 21:49:00,
2013-02-12 16:54:00,31.0,24.0,30.19,SW,225,4.0,8.0,79,0.00,,,0.00,TxWx,2013-02-12 21:54:00,
2013-02-12 17:00:00,31.0,24.0,30.19,West,270,8.0,11.0,78,0.00,,,0.00,TxWx,2013-02-12 22:00:00,
2013-02-12 17:05:00,31.0,24.0,30.20,WSW,247,6.0,12.0,77,0.00,,,0.00,TxWx,2013-02-12 22:05:00,
2013-02-12 17:10:00,31.0,24.0,30.21,SW,225,8.0,10.0,79,0.00,,,0.00,TxWx,2013-02-12 22:10:00,
2013-02-12 17:17:00,31.0,25.0,30.20,SSW,202,9.0,12.0,80,0.00,,,0.00,TxWx,2013-02-12 22:17:00,
2013-02-12 17:22:00,31.0,25.0,30.20,West,270,5.0,10.0,82,0.00,,,0.00,TxWx,2013-02-12 22:22:00,
2013-02-12 17:27:00,31.0,25.0,30.20,WSW,247,5.0,9.0,83,0.00,,,0.00,TxWx,2013-02-12 22:27:00,
2013-02-12 17:32:00,31.0,25.0,30.21,WNW,292,7.0,18.0,82,0.00,,,0.00,TxWx,2013-02-12 22:32:00,
2013-02-12 17:38:00,31.0,25.0,30.21,SSW,202,6.0,11.0,82,0.00,,,0.00,TxWx,2013-02-12 22:38:00,
2013-02-12 17:43:00,31.0,25.0,30.21,SSW,202,5.0,11.0,81,0.00,,,0.00,TxWx,2013-02-12 22:43:00,
2013-02-12 17:49:00,31.0,25.0,30.21,SW,225,5.0,8.0,81,0.00,,,0.00,TxWx,2013-02-12 22:49:00,
2013-02-12 17:54:00,31.0,25.0,30.21,SW,225,6.0,10.0,81,0.00,,,0.00,TxWx,2013-02-12 22:54:00,
2013-02-12 17:59:00,31.0,25.0,30.22,WSW,247,12.0,15.0,82,0.00,,,0.00,TxWx,2013-02-12 22:59:00,
2013-02-12 18:05:00,31.0,25.0,30.21,SW,225,17.0,22.0,82,0.00,,,0.00,TxWx,2013-02-12 23:05:00,
2013-02-12 18:10:00,31.0,25.0,30.21,WSW,247,19.0,21.0,83,0.00,,,0.00,TxWx,2013-02-12 23:10:00,
2013-02-12 18:15:00,31.0,25.0,30.22,SW,225,13.0,13.0,83,0.00,,,0.00,TxWx,2013-02-12 23:15:00,
2013-02-12 18:21:00,31.0,25.0,30.22,SW,225,13.0,17.0,83,0.00,,,0.00,TxWx,2013-02-12 23:21:00,
2013-02-12 18:26:00,31.0,25.0,30.22,SSW,202,13.0,19.0,83,0.00,,,0.00,TxWx,2013-02-12 23:26:00,
2013-02-12 18:31:00,31.0,25.0,30.22,WSW,247,6.0,22.0,83,0.00,,,0.00,TxWx,2013-02-12 23:31:00,
2013-02-12 18:37:00,31.0,25.0,30.22,WSW,247,11.0,20.0,83,0.00,,,0.00,TxWx,2013-02-12 23:37:00,
2013-02-12 18:42:00,31.0,25.0,30.22,SW,225,14.0,22.0,83,0.00,,,0.00,TxWx,2013-02-12 23:42:00,
2013-02-12 18:48:00,31.0,25.0,30.23,SW,225,16.0,18.0,83,0.00,,,0.00,TxWx,2013-02-12 23:48:00,
2013-02-12 18:53:00,31.0,25.0,30.24,SW,225,13.0,15.0,83,0.00,,,0.00,TxWx,2013-02-12 23:53:00,
2013-02-12 18:59:00,31.0,25.0,30.24,SW,225,7.0,16.0,83,0.00,,,0.00,TxWx,2013-02-12 23:59:00,
2013-02-12 19:04:00,31.0,26.0,30.24,WSW,247,6.0,11.0,84,0.00,,,0.00,TxWx,2013-02-13 00:04:00,
2013-02-12 19:09:00,31.0,26.0,30.24,WSW,247,7.0,16.0,84,0.00,,,0.00,TxWx,2013-02-13 00:09:00,
2013-02-12 19:15:00,31.0,26.0,30.23,West,270,5.0,10.0,84,0.00,,,0.00,TxWx,2013-02-13 00:15:00,
2013-02-12 19:21:00,31.0,26.0,30.24,WSW,247,5.0,9.0,84,0.00,,,0.00,TxWx,2013-02-13 00:21:00,
2013-02-12 19:26:00,31.0,26.0,30.24,WSW,247,11.0,15.0,84,0.00,,,0.00,TxWx,2013-02-13 00:26:00,
2013-02-12 19:32:00,31.0,26.0,30.24,SW,225,9.0,10.0,84,0.00,,,0.00,TxWx,2013-02-13 00:32:00,
2013-02-12 19:37:00,31.0,25.0,30.24,WSW,247,10.0,12.0,82,0.00,,,0.00,TxWx,2013-02-13 00:37:00,
2013-02-12 19:43:00,31.0,25.0,30.24,West,270,7.0,14.0,81,0.00,,,0.00,TxWx,2013-02-13 00:43:00,
2013-02-12 19:48:00,31.0,25.0,30.24,WSW,247,6.0,8.0,82,0.00,,,0.00,TxWx,2013-02-13 00:48:00,
2013-02-12 19:53:00,31.0,25.0,30.24,WSW,247,10.0,11.0,80,0.00,,,0.00,TxWx,2013-02-13 00:53:00,
2013-02-12 19:58:00,31.0,25.0,30.24,SW,225,3.0,10.0,80,0.00,,,0.00,TxWx,2013-02-13 00:58:00,
2013-02-12 20:04:00,31.0,24.0,30.24,SW,225,5.0,10.0,80,0.00,,,0.00,TxWx,2013-02-13 01:04:00,
2013-02-12 20:09:00,31.0,24.0,30.24,WSW,247,5.0,6.0,80,0.00,,,0.00,TxWx,2013-02-13 01:09:00,
2013-02-12 20:15:00,31.0,24.0,30.24,WSW,247,8.0,8.0,79,0.00,,,0.00,TxWx,2013-02-13 01:15:00,
2013-02-12 20:20:00,31.0,24.0,30.23,West,270,5.0,9.0,79,0.00,,,0.00,TxWx,2013-02-13 01:20:00,
2013-02-12 20:26:00,31.0,25.0,30.23,WSW,247,4.0,7.0,82,0.00,,,0.00,TxWx,2013-02-13 01:26:00,
2013-02-12 20:31:00,31.0,26.0,30.23,West,270,5.0,8.0,84,0.00,,,0.00,TxWx,2013-02-13 01:31:00,
2013-02-12 20:36:00,31.0,26.0,30.23,WSW,247,6.0,9.0,84,0.00,,,0.00,TxWx,2013-02-13 01:36:00,
2013-02-12 20:41:00,31.0,26.0,30.23,SSW,202,3.0,7.0,85,0.00,,,0.00,TxWx,2013-02-13 01:41:00,
2013-02-12 20:46:00,31.0,26.0,30.23,WSW,247,6.0,7.0,85,0.00,,,0.00,TxWx,2013-02-13 01:46:00,
2013-02-12 20:53:00,31.0,26.0,30.23,SW,225,6.0,14.0,85,0.00,,,0.00,TxWx,2013-02-13 01:53:00,
2013-02-12 20:58:00,31.0,26.0,30.22,WSW,247,4.0,7.0,85,0.00,,,0.00,TxWx,2013-02-13 01:58:00,
2013-02-12 21:04:00,31.0,26.0,30.22,WSW,247,5.0,8.0,85,0.00,,,0.00,TxWx,2013-02-13 02:04:00,
2013-02-12 21:09:00,31.0,26.0,30.22,West,270,10.0,11.0,84,0.00,,,0.00,TxWx,2013-02-13 02:09:00,
2013-02-12 21:15:00,31.0,25.0,30.22,SW,225,10.0,12.0,83,0.00,,,0.00,TxWx,2013-02-13 02:15:00,
2013-02-12 21:20:00,31.0,25.0,30.21,West,270,4.0,7.0,82,0.00,,,0.00,TxWx,2013-02-13 02:20:00,
2013-02-12 21:26:00,31.0,25.0,30.21,WSW,247,7.0,8.0,83,0.00,,,0.00,TxWx,2013-02-13 02:26:00,
2013-02-12 21:31:00,31.0,25.0,30.21,WNW,292,6.0,8.0,83,0.00,,,0.00,TxWx,2013-02-13 02:31:00,
2013-02-12 21:36:00,31.0,25.0,30.21,SW,225,5.0,8.0,83,0.00,,,0.00,TxWx,2013-02-13 02:36:00,
2013-02-12 21:42:00,31.0,25.0,30.21,West,270,5.0,10.0,83,0.00,,,0.00,TxWx,2013-02-13 02:42:00,
2013-02-12 21:47:00,31.0,25.0,30.21,WSW,247,10.0,10.0,82,0.00,,,0.00,TxWx,2013-02-13 02:47:00,
2013-02-12 21:52:00,31.0,25.0,30.20,WSW,247,8.0,14.0,82,0.00,,,0.00,TxWx,2013-02-13 02:52:00,
2013-02-12 21:58:00,31.0,25.0,30.20,West,270,5.0,8.0,81,0.00,,,0.00,TxWx,2013-02-13 02:58:00,
2013-02-12 22:03:00,31.0,25.0,30.20,WSW,247,5.0,7.0,82,0.00,,,0.00,TxWx,2013-02-13 03:03:00,
2013-02-12 22:09:00,31.0,25.0,30.19,SW,225,7.0,9.0,83,0.00,,,0.00,TxWx,2013-02-13 03:09:00,
2013-02-12 22:15:00,31.0,26.0,30.19,South,180,5.0,8.0,84,0.00,,,0.00,TxWx,2013-02-13 03:15:00,
2013-02-12 22:20:00,31.0,26.0,30.19,WSW,247,4.0,11.0,84,0.00,,,0.00,TxWx,2013-02-13 03:20:00,
2013-02-12 22:26:00,31.0,25.0,30.19,WSW,247,3.0,12.0,82,0.00,,,0.00,TxWx,2013-02-13 03:26:00,
2013-02-12 22:31:00,31.0,24.0,30.19,WSW,247,5.0,12.0,78,0.00,,,0.00,TxWx,2013-02-13 03:31:00,
2013-02-12 22:36:00,31.0,23.0,30.19,WSW,247,7.0,10.0,75,0.00,,,0.00,TxWx,2013-02-13 03:36:00,
2013-02-12 22:42:00,31.0,23.0,30.19,WNW,292,5.0,7.0,76,0.00,,,0.00,TxWx,2013-02-13 03:42:00,
2013-02-12 22:47:00,31.0,23.0,30.19,WSW,247,8.0,11.0,76,0.00,,,0.00,TxWx,2013-02-13 03:47:00,
2013-02-12 22:53:00,31.0,23.0,30.19,WNW,292,4.0,9.0,76,0.00,,,0.00,TxWx,2013-02-13 03:53:00,
2013-02-12 22:58:00,31.0,23.0,30.18,SW,225,5.0,10.0,75,0.00,,,0.00,TxWx,2013-02-13 03:58:00,
2013-02-12 23:03:00,31.0,23.0,30.18,WSW,247,5.0,8.0,76,0.00,,,0.00,TxWx,2013-02-13 04:03:00,
2013-02-12 23:09:00,31.0,23.0,30.18,WSW,247,7.0,8.0,76,0.00,,,0.00,TxWx,2013-02-13 04:09:00,
2013-02-12 23:14:00,31.0,23.0,30.18,WSW,247,5.0,8.0,75,0.00,,,0.00,TxWx,2013-02-13 04:14:00,
2013-02-12 23:20:00,31.0,23.0,30.18,WSW,247,3.0,4.0,75,0.00,,,0.00,TxWx,2013-02-13 04:20:00,
2013-02-12 23:25:00,31.0,23.0,30.18,WSW,247,8.0,9.0,75,0.00,,,0.00,TxWx,2013-02-13 04:25:00,
2013-02-12 23:30:00,31.0,23.0,30.17,WNW,292,2.0,7.0,75,0.00,,,0.00,TxWx,2013-02-13 04:30:00,
2013-02-12 23:36:00,31.0,22.0,30.17,SW,225,10.0,13.0,73,0.00,,,0.00,TxWx,2013-02-13 04:36:00,
2013-02-12 23:41:00,31.0,22.0,30.17,WSW,247,5.0,6.0,73,0.00,,,0.00,TxWx,2013-02-13 04:41:00,
2013-02-12 23:47:00,31.0,22.0,30.17,SW,225,3.0,5.0,73,0.00,,,0.00,TxWx,2013-02-13 04:47:00,
2013-02-12 23:52:00,31.0,22.0,30.17,West,270,5.0,8.0,73,0.00,,,0.00,TxWx,2013-02-13 04:52:00,
2013-02-12 23:57:00,31.0,21.0,30.18,West,270,6.0,11.0,70,0.00,,,0.00,TxWx,2013-02-13 04:57:00,